Miscellaneous Local Product
Issued by NWS Hastings, NE

Home | Current Version | Previous Version | Graphics & Text | Print | Product List | Glossary On
Versions: 1 2 3 4 5 6 7 8 9 10 11 12 13 14 15 16 17 18 19 20 21 22 23 24 25 26 27 28 29 30 31 32 33 34 35 36 37 38 39 40 41 42 43 44 45 46 47 48 49 50
000
AXUS43 KGID 230902
MISGRI

GID CWA HOURLY WEATHER ROUNDUP
NATIONAL WEATHER SERVICE HASTINGS NE
400 AM CDT MON MAY 23 2016

NOTE: "FAIR" INDICATES FEW OR NO CLOUDS BELOW 12,000 FEET WITH NO
SIGNIFICANT WEATHER AND/OR OBSTRUCTIONS TO VISIBILITY.

...SOUTH CENTRAL NEBRASKA...

CITY           SKY/WX    TMP DP  RH WIND       PRES   REMARKS
GRAND ISLAND   CLOUDY    69  64  84 S20G28    29.76S
HASTINGS       CLOUDY    68  64  87 S10       29.77S
KEARNEY        CLOUDY    61  54  77 NW20G28   29.83R
ORD            CLOUDY    58  53  84 NW18      29.80R
YORK           CLOUDY    68  64  88 S15       29.79R
AURORA         CLOUDY    70  65  86 S13G21    29.77F
LEXINGTON      CLOUDY    56  51  84 N3        29.84S
HOLDREGE       TSTM      57  54  87 NW16G30   29.83R
HEBRON         PTCLDY    68  64  84 S15       29.76F

...NEBRASKA PANHANDLE...

CITY           SKY/WX    TMP DP  RH WIND       PRES   REMARKS
CHADRON        CLEAR     44  39  82 S6        29.82S
ALLIANCE       PTCLDY    50  42  74 W12       29.86R
SCOTTSBLUFF    MOCLDY    50  42  74 S7        29.89R
SIDNEY         CLOUDY    53  36  52 NW13      29.88F

...WESTERN AND NORTH CENTRAL NEBRASKA...

CITY           SKY/WX    TMP DP  RH WIND       PRES   REMARKS
VALENTINE      CLOUDY    53  48  83 S5        29.76F
AINSWORTH      CLOUDY    54  51  90 SE7       29.76F
ONEILL         TSTM      60  58  94 NW21      29.80R
BROKEN BOW     RAIN      56  50  80 NE12      29.79S
IMPERIAL       CLOUDY    55  51  86 CALM      29.87R
NORTH PLATTE   CLOUDY    54  49  83 W6        29.84R
MCCOOK         LGT RAIN  55  52  89 NW7       29.86R FOG

...EASTERN NEBRASKA...

CITY           SKY/WX    TMP DP  RH WIND       PRES   REMARKS
NORFOLK        CLOUDY    70  63  78 VRB6      29.78R
SO SIOUX CITY  CLOUDY    70  61  73 VRB5G18   29.79R
TEKAMAH        CLOUDY    70  60  70 S21       29.77F
COLUMBUS       CLOUDY    68  59  73 S15       29.78R
ALBION         CLOUDY    66  60  79 N15G21    29.77R THUNDER
OMAHA EPPLEY   CLOUDY    70  60  70 S20       29.79F
OFFUTT AFB     CLOUDY    68  60  76 SE14      29.80F
MILLARD        MOCLDY    69  62  78 SE9       29.80F
LINCOLN        CLOUDY    70  62  76 S17       29.76F
NEBRASKA CITY  CLOUDY    67  60  80 S13       29.83S
BEATRICE       CLOUDY    67  62  84 SE12      29.78F
FALLS CITY     CLOUDY    67  59  75 SE9       29.83F

...NORTHERN KANSAS...

CITY           SKY/WX    TMP DP  RH WIND       PRES   REMARKS
GOODLAND       CLOUDY    57  48  72 NE14      29.85R
HILL CITY      CLOUDY    69  62  78 N17G25    29.81R
NORTON         CLOUDY    57  48  72 NW20      29.82R
PHILLIPSBURG   CLOUDY    64  55  72 NW14G28   29.80R
SMITH CENTER   CLOUDY    66  64  94 S3        29.79R
BELOIT         PTCLDY    68  64  88 SE13      29.74F
HAYS           PTCLDY    66  59  77 S9        29.73S
RUSSELL        CLOUDY    67  64  90 S14       29.73R
CONCORDIA      CLOUDY    67  63  87 S8        29.77R
SALINA         CLOUDY    70  65  84 S15       29.76F
TOPEKA         CLEAR     67  60  78 SE9       29.85F



USA.gov is the U.S. government's official web portal to all federal, state and local government web resources and services.